N5LOC Weather Reports


time (UTC)temp
F
wind
direction
speed
knots
gust
knots
rain 1hr
in
rain 24hr
in
rain mn
in
humidity
%
barometer
mb
20260506033028 70 317 1.7 7.0 0.00 0.00 0.00 77 1009.8
20260506030026 71 48 4.3 9.6 0.00 0.00 0.00 77 1008.9
20260506023026 74 296 2.6 7.0 0.00 0.00 0.00 74 1008.0
20260506020023 75 39 1.7 5.2 0.00 0.00 0.00 73 1007.5
20260506013025 76 342 2.6 7.0 0.00 0.00 0.00 72 1006.8
20260506010024 79 338 2.6 9.6 0.00 0.00 0.00 70 1006.5
20260506003026 82 15 0.9 5.2 0.00 0.00 0.00 66 1006.3
20260506000028 85 303 0.0 5.2 0.00 0.00 0.00 63 1006.0
20260505233024 85 121 2.6 6.1 0.00 0.00 0.00 73 1005.2
20260505230028 86 158 1.7 6.1 0.00 0.00 0.00 71 1005.0
20260505223024 89 195 0.9 7.0 0.00 0.00 0.00 67 1004.6
20260505220025 92 231 1.7 6.1 0.00 0.00 0.00 63 1004.8
20260505213026 91 269 1.7 7.0 0.00 0.00 0.00 59 1004.8
20260505210026 89 220 0.9 10.4 0.00 0.00 0.00 64 1005.2
20260505203022 88 230 2.6 11.3 0.00 0.00 0.00 66 1005.8
20260505200028 87 246 5.2 11.3 0.00 0.00 0.00 66 1005.9
20260505193028 87 251 3.5 11.3 0.00 0.00 0.00 68 1005.9
20260505190027 84 250 3.5 9.6 0.00 0.00 0.00 71 1006.0
20260505183025 84 205 2.6 10.4 0.00 0.00 0.00 71 1006.1
20260505180022 84 309 5.2 13.9 0.00 0.00 0.00 70 1006.1
20260505173026 83 82 5.2 12.2 0.00 0.00 0.00 72 1006.2
20260505170025 82 210 4.3 13.9 0.00 0.00 0.00 73 1006.3
20260505163023 81 304 5.2 14.8 0.00 0.00 0.00 74 1006.2
20260505153024 78 250 4.3 13.0 0.00 0.00 0.00 79 1006.2
20260505123023 72 216 2.6 9.6 0.00 0.00 0.00 87 1005.6
20260505120027 71 143 3.5 7.8 0.00 0.00 0.00 87 1005.4
20260505113027 71 248 3.5 9.6 0.00 0.00 0.00 86 1005.2
20260505100025 71 150 3.5 9.6 0.00 0.00 0.00 86 1005.3
20260505093024 71 194 3.5 10.4 0.00 0.00 0.00 86 1005.5
20260505090022 71 219 2.6 9.6 0.00 0.00 0.00 86 1005.6
20260505083020 71 186 4.3 16.5 0.00 0.00 0.00 86 1005.7
20260505080026 71 335 6.1 10.4 0.00 0.00 0.00 85 1005.7
20260505073026 72 224 2.6 13.0 0.00 0.00 0.00 84 1006.2
20260505070025 72 176 4.3 12.2 0.00 0.00 0.00 83 1006.6
20260505063026 72 236 5.2 14.8 0.00 0.00 0.00 83 1006.7
20260505060027 72 191 1.7 11.3 0.00 0.00 0.00 81 1007.1
20260505053027 72 143 1.7 7.0 0.00 0.00 0.00 80 1007.4
20260505040024 73 148 2.6 7.8 0.00 0.00 0.00 77 1007.7